{"data":{"norad_id":82683,"epoch":"2026-05-23T22:11:07.265760Z","epoch_age_seconds":161313,"freshness":"FRESH","line1":"1 82683U          26143.92438965  .00000641  00000+0  25639-3 0  9997","line2":"2 82683  98.1505 205.5686 0208071 280.7774  77.0045 14.20552396485290","mean_motion":14.20552396,"eccentricity":0.0208071,"inclination_deg":98.1505,"raan_deg":205.5686,"arg_perigee_deg":280.7774,"mean_anomaly_deg":77.0045,"bstar":0.00025639,"rev_number":48529,"period_min":101.36901701442,"perigee_km":673.64036409535,"apogee_km":973.33011223889,"semimajor_km":7201.6222381671,"source":"CELESTRAK","updated_at":"2026-05-25T13:38:11.193063Z"}}